sat.trackr.live / text

‹ back to catalog

STARLINK-31593

NORAD 59350 · 2024-060C

PAYLOAD ACTIVE UNKNOWN

§ Identity

Operator
Country
US
Launch date
2024-03-31
Launch site
AFETR
Launch vehicle
Mass (kg)
RCS (m²)

Purposes: comms

External: N2YO · Heavens-Above · Gunter

§ Orbital elements

Epoch: 2026-05-24T20:10:46.680384Z

Period
94.27 min
Inclination
43.0026°
Eccentricity
0.0001168
Mean motion
15.27576779 rev/d
Perigee alt
482.3 km
Apogee alt
483.9 km
Semi-major
6,861.2 km
B*
1.2005e-5
RAAN
189.4149°
Arg perigee
276.6567°
Mean anomaly
83.4151°
Rev number
12,171

§ Raw data

STARLINK-315931 59350U 24060C   26144.84081806  .00000068  00000+0  12005-4 0  99912 59350  43.0026 189.4149 0001168 276.6567  83.4151 15.27576779121710

JSON: /api/v1/satellites/59350 · /tle

For live sub-satellite position, see the globe view (requires WebGL).

§ Visibility from observer

Set your observer location to see the next 7 days of passes ≥ 10°. The values pass through the URL so the page stays shareable.

No JS? Fill the form by hand. The geolocation button needs JavaScript.